User: anonymous   Login
Location: Bowman Observatory
(41.0326°N, 73.6210°W)
Time: 18:15:59
(UTC-04:00)
Language:

Cosmos 2298 Rocket - Orbit

View from above orbital plane
View from above orbital plane
View from above satellite
View from above satellite

Ground track
Ground track

The orbit data is extracted from the following two-line orbital elements,

1 23432U 94083B   17289.00191094  .00000012  00000-0  13663-4 0  9995
2 23432  74.0320  77.0425 0006353 258.9004 240.2483 14.33482562193613
Epoch (UTC): 16 October 2017 00:02:45
Eccentricity: 0.0006353
inclination: 74.0320°
perigee height: 775 km
apogee height: 784 km
right ascension of ascending node: 77.0425°
argument of perigee: 258.9004°
revolutions per day: 14.33482562
mean anomaly at epoch: 240.2483°
orbit number at epoch: 19361

The dashed part of the orbit path shows where the satellite is in the earth's shadow,  

DLR